Regional Weather Roundup
Issued by NWS

Home | Current Version | Previous Version | Text Only | Print | Product List | Glossary On
Versions: 1 2 3 4 5 6 7 8 9 10 11 12 13 14 15 16 17 18 19 20 21 22 23 24 25 26 27 28 29 30 31 32 33 34 35 36 37 38 39 40 41 42 43 44 45 46 47 48 49 50
000
ASUS45 KBOU 250407
RWRCO

WEATHER ROUNDUP FOR COLORADO
NATIONAL WEATHER SERVICE DENVER/BOULDER CO
1000 PM MDT THU JUL 24 2014

NOTE: "FAIR" INDICATES FEW OR NO CLOUDS BELOW 12000 FEET WITH NO
SIGNIFICANT WEATHER AND/OR OBSTRUCTIONS TO VISIBILITY.

COZ001>005-013-030-031-250500-
...NORTHWEST COLORADO...

CITY           SKY/WX    TMP DP  RH WIND       PRES   REMARKS
CRAIG          MOCLDY    63  49  60 N7        30.17R
HAYDEN         MOCLDY    70  41  35 NW5       30.21R
MEEKER         PTCLDY    64  54  69 NE6       30.23R
MOUNT WERNER   NOT AVBL
STEAMBOAT SPGS MOCLDY    69  52  54 E3        30.24R
WALDEN         PTCLDY    55  45  67 SE8       30.34R
$$

COZ006>008-011-250500-
...WEST CENTRAL VALLEYS...

CITY           SKY/WX    TMP DP  RH WIND       PRES   REMARKS
GRAND JUNCTION CLEAR     78  51  38 SE10      30.08R
MONTROSE       MOCLDY    74  52  46 SE12G22   30.22R
EAGLE          MOCLDY    73  46  38 NW7       30.29R
RIFLE          PTCLDY    76  50  40 E15       30.16R
DELTA          MOCLDY    77  52  41 NE9       30.16R
NUCLA          MOCLDY    73  52  46 S7        30.27R
$$

COZ017>023-064>068-250500-
...SOUTHWEST COLORADO...

CITY           SKY/WX    TMP DP  RH WIND       PRES   REMARKS
DURANGO        CLOUDY    68  55  63 N12       30.27S
CORTEZ         PTCLDY    75  53  46 N6        30.24R
PAGOSA SPRINGS CLOUDY    73  44  35 CALM      30.36R
TELLURIDE      NOT AVBL
WOLF CREEK PAS NOT AVBL
$$

COZ009-010-012-014-032>034-037-058>063-250500-
...CENTRAL COLORADO...

CITY           SKY/WX    TMP DP  RH WIND       PRES   REMARKS
ASPEN          MOCLDY    60  52  74 SW7       30.35S
BUENA VISTA    PTCLDY    61  53  73 CALM      30.38R
COPPER MTN     MOCLDY    55  39  54 S13       30.69R
BERTHOUD PASS  FAIR      48  34  57 W15       30.72R
COTTONWOOD PAS PTCLDY    59  45  58 W12G22    30.51F
GUNNISON       PTCLDY    63  48  59 SE5       30.41S
KREMMLING      CLOUDY    66  50  55 NW5       30.32R
LEADVILLE      MOCLDY    54  42  64 E7        30.50S
MONARCH PASS   MOCLDY    46  41  81 W22       30.79R
SALIDA         PTCLDY   N/A N/A N/A SW7       30.41S
SUNLIGHT       MOCLDY    55  46  71 CALM      30.60R
WILKERSON PASS CLOUDY    52  43  71 SW8       30.65R
$$

COZ069>075-250500-
...SAN LUIS VALLEY/SANGRE DE CRISTO MOUNTAINS...

CITY           SKY/WX    TMP DP  RH WIND       PRES   REMARKS
ALAMOSA        CLOUDY    65  50  58 N15       30.34R
LA VETA PASS   CLOUDY    59  41  51 W5        30.52R
SAGUACHE       MOCLDY    61  54  77 NW12      30.38S
$$

COZ035-036-038>040-250500-
...NORTHERN COLORADO FRONT RANGE...

CITY           SKY/WX    TMP DP  RH WIND       PRES   REMARKS
DENVER INTL AP CLOUDY    72  53  51 SE16      30.10S
DMNS CITY PARK   N/A     72  55  53 SW3G9     30.10S
AURORA         MOCLDY    73  52  47 S12       30.12S
FRONT RANGE AP NOT AVBL
ERIE MUNI ARPT CLOUDY    77  50  38 S9        30.08R
BOULDER MUN AP CLOUDY    79  48  34 SE13      30.06F
CENTENNIAL     MOCLDY    71  52  50 S14       30.13F
BROOMFIELD     PTCLDY    75  54  46 S12       30.13R
FORT COLLINS   MOCLDY    75  55  50 S17       30.05S
LONGMONT       MOCLDY    82  49  30 S13G21    30.07S
$$

COZ041-046-047-076>085-087-088-250500-
...PIKES PEAK/PALMER DIVIDE AND SOUTHERN FOOTHILLS...

CITY           SKY/WX    TMP DP  RH WIND       PRES   REMARKS
COLO. SPRINGS  CLOUDY    72  52  49 NW13      30.18R
A. F. ACADEMY  MOCLDY    63  58  81 N6        30.23R
ELLICOTT       CLOUDY    78  45  30 N8        30.13S
FALCON         CLOUDY    66  52  61 N12       30.24R
FORT CARSON    CLOUDY    74  53  47 NW14      30.14R
LIMON          CLOUDY    71  55  56 W22G29    30.12F
MONUMENT HILL  CLOUDY    61  52  72 SE6       30.24F
TRINIDAD       MOCLDY    82  43  25 S6        30.12R
$$

COZ042>045-048>051-090-091-250500-
...NORTHEAST COLORADO...

CITY           SKY/WX    TMP DP  RH WIND       PRES   REMARKS
GREELEY ARPT   MOCLDY    79  54  41 S13G23    30.05R
AKRON          MOCLDY    77  51  40 S8        30.03S
BURLINGTON     CLOUDY    78  51  38 NE6       29.98R
WRAY             N/A     76  55  48 SW3       29.93S
STERLING       MOCLDY    73  64  73 SW8       29.96R
HOLYOKE        CLOUDY    72  64  78 W7        29.92S
FORT MORGAN    MOCLDY    76  52  43 S13       30.04R
$$

COZ086-089-092>099-250500-
...SOUTHEAST COLORADO...

CITY           SKY/WX    TMP DP  RH WIND       PRES   REMARKS
PUEBLO         CLOUDY    83  49  30 N13       30.03R
LA JUNTA       MOCLDY    90  46  21 S14       29.94R
LAMAR          MOCLDY    88  42  20 S23G31    29.90R
SPRINGFIELD      N/A     78  45  30 S15       30.04R
$$


USA.gov is the U.S. government's official web portal to all federal, state and local government web resources and services.